Lapse_Rate
8.5 8.9 8.5 8.7 8.7 8.6 8.5 8.2 8.0 8.1 8.5 8.7 9.1 8.8 8.3 8.0 7.5 7.4 7.5 7.6 7.3 7.3 7.0 6.6 6.3 6.5 6.5 6.6 6.9 7.2 6.7 6.4 6.4 6.4 6.4 6.1 5.3 4.7 5.1 4.9 4.8 4.7 5.0 4.9
7.7 8.1 8.1 8.0 8.0 8.1 8.2 8.3 8.3 8.3 8.5 8.7 8.6 8.0 8.0 7.8 7.5 7.5 7.3 7.4 7.5 7.3 7.3 6.8 6.6 6.5 6.4 6.6 6.8 7.2 6.4 6.3 6.5 6.1 6.1 5.8 4.8 4.7 4.7 4.5 4.2 4.9 4.6 4.3
7.3 7.5 7.5 7.5 8.1 8.2 7.9 8.1 8.3 8.2 8.3 8.2 8.1 8.1 7.2 7.3 7.3 7.1 7.1 7.2 7.2 7.1 7.1 6.9 6.5 6.5 6.5 6.4 6.3 6.7 6.3 6.5 6.2 6.2 5.5 4.6 3.7 3.8 4.3 4.3 4.4 4.6 4.6 4.5
7.2 7.3 6.7 8.0 7.9 8.1 8.0 8.0 8.1 8.2 7.9 7.7 7.6 7.5 7.6 7.1 6.6 7.0 6.8 6.5 6.8 7.1 7.0 6.8 6.7 6.4 6.4 6.5 6.4 6.2 6.1 6.0 5.4 4.6 5.2 4.2 3.7 4.0 3.8 4.3 4.6 4.6 4.3 4.4
7.0 7.0 7.6 7.7 7.8 7.6 7.7 8.0 7.4 7.2 7.2 7.1 6.8 7.3 7.1 6.5 6.5 6.7 6.8 6.9 6.9 6.9 6.9 6.7 6.7 6.4 6.5 6.6 6.6 6.1 6.1 5.4 5.2 4.2 4.2 3.1 3.5 3.3 3.8 3.9 4.5 4.8 5.1 5.1
6.8 6.9 6.6 7.4 7.6 7.5 7.5 7.2 6.3 6.9 6.6 6.6 6.7 6.6 6.6 6.5 6.2 6.4 6.6 6.5 6.7 6.9 6.7 6.5 6.4 6.6 6.6 6.5 6.1 6.1 6.1 5.6 4.3 3.9 2.8 3.6 3.2 3.7 3.8 4.7 5.2 5.2 5.1 4.6
6.6 6.5 6.7 7.1 6.9 7.1 6.8 6.4 6.3 6.4 6.5 6.4 6.4 6.4 6.1 6.1 6.5 6.7 6.0 6.0 6.2 6.2 6.2 6.0 6.0 6.0 6.1 6.1 6.0 6.1 5.7 4.8 4.2 3.7 4.0 4.3 4.2 4.0 5.1 5.5 5.3 5.2 4.9 5.1
6.2 6.1 6.0 6.6 6.5 6.4 6.3 6.3 6.4 6.4 6.3 6.2 6.0 6.5 6.5 6.1 5.7 5.8 6.6 5.8 5.8 6.2 6.2 6.2 6.3 6.2 6.2 6.3 6.5 6.2 5.0 4.7 4.6 4.4 4.2 3.9 4.2 5.0 5.9 5.6 5.2 4.8 5.3 5.8
6.8 6.8 6.6 6.3 6.3 6.2 5.8 6.2 6.3 6.0 5.8 5.7 5.8 6.0 5.8 5.9 5.7 5.7 6.2 6.1 6.4 6.5 6.4 6.3 6.2 6.1 6.2 6.2 5.6 5.1 5.0 5.0 5.1 4.7 4.2 4.8 5.4 5.7 5.4 5.4 5.6 6.0 6.0 6.2
6.6 7.0 6.6 6.2 6.1 5.6 5.3 5.9 5.9 5.9 5.9 5.6 6.1 6.2 6.0 5.8 5.7 5.8 6.0 6.3 6.2 6.1 5.9 5.8 5.7 5.8 5.9 5.2 4.9 5.2 5.4 5.0 4.7 4.7 4.7 5.3 5.3 5.2 5.3 5.9 6.1 6.4 6.5 6.5
6.3 6.6 6.6 6.3 5.6 5.5 5.9 5.8 5.9 6.0 5.7 6.2 6.1 6.0 6.1 6.1 6.2 6.1 5.9 5.8 5.6 5.5 5.6 5.7 5.6 5.1 4.9 5.2 5.3 5.5 5.5 5.2 5.0 5.0 5.3 5.3 5.3 5.8 6.2 6.3 6.4 6.6 6.6 6.7
6.4 6.1 6.8 6.3 6.0 6.0 5.9 5.9 6.2 6.1 6.1 6.1 6.0 6.1 6.1 6.0 5.9 5.8 5.6 5.3 5.3 5.5 5.5 5.2 5.1 5.3 5.3 5.5 5.6 5.5 5.4 5.5 5.6 5.4 5.5 5.8 6.1 6.6 6.6 6.6 6.7 7.0 7.1 7.0
6.4 6.6 6.2 5.9 6.1 6.2 6.5 6.2 6.1 6.1 6.1 6.0 6.0 6.0 6.0 5.9 5.8 5.6 5.7 5.4 5.4 5.3 5.3 5.4 5.4 5.3 5.3 5.6 5.7 5.6 5.5 5.5 5.6 5.9 6.2 6.4 6.5 6.5 6.6 6.8 6.9 7.1 7.2 7.1
6.8 6.5 6.0 6.0 6.2 6.6 6.3 6.3 6.2 6.0 5.9 6.0 6.1 6.0 5.9 5.9 5.9 5.7 5.4 5.3 5.3 5.5 5.5 5.5 5.3 5.3 5.3 5.6 5.8 5.9 6.0 6.2 6.4 6.5 6.6 6.5 6.4 6.3 6.5 6.8 7.0 7.1 7.1 7.0
6.6 6.6 6.4 6.4 6.0 6.0 6.0 5.9 5.9 6.0 6.1 6.1 6.0 6.0 5.8 5.6 5.5 5.4 5.4 5.5 5.4 5.5 5.3 5.3 5.3 5.5 5.8 6.1 6.2 6.4 6.6 6.7 6.7 6.7 6.7 6.7 6.5 6.7 7.1 7.1 7.1 7.0 7.0 7.2
6.8 6.4 6.4 6.3 6.2 6.0 5.8 5.8 5.8 5.8 5.9 5.9 5.5 5.3 5.1 5.1 5.2 5.3 5.5 5.6 5.3 5.3 5.4 5.5 5.7 5.9 6.1 6.5 6.8 6.8 6.7 6.5 6.3 6.3 6.1 6.2 6.3 6.6 6.7 6.7 6.9 7.1 7.1 7.2
6.3 6.2 6.2 6.2 6.0 5.9 5.9 5.8 5.7 5.6 5.4 5.2 5.0 5.0 5.0 5.1 5.3 5.5 5.4 5.4 5.4 5.5 5.5 5.8 6.3 7.0 7.0 6.9 6.7 6.7 6.5 6.1 6.1 6.1 6.1 6.0 6.3 6.5 6.4 6.5 6.6 6.7 7.0 7.0
6.3 6.2 6.0 5.8 5.7 5.7 5.7 5.6 5.4 5.2 5.0 5.0 4.9 5.0 5.1 5.4 5.4 5.3 5.3 5.4 5.5 5.6 5.7 6.4 6.8 7.0 7.0 6.9 6.7 6.6 6.5 6.4 6.2 6.0 6.0 6.3 6.4 6.5 6.6 6.7 6.6 6.5 6.5 6.8
6.1 5.9 5.8 5.7 5.6 5.5 5.3 5.2 5.1 5.0 4.9 4.9 4.9 5.2 5.3 5.2 5.2 5.3 5.4 5.5 5.5 5.9 6.5 7.0 7.1 7.0 6.9 6.8 6.6 6.5 6.3 6.2 5.9 5.9 6.3 6.5 6.5 6.6 6.7 6.9 6.8 6.6 6.5 6.7
5.7 5.6 5.5 5.5 5.3 5.1 5.0 4.9 4.8 4.8 4.9 5.0 5.1 5.1 5.1 5.1 5.2 5.4 5.5 5.7 6.0 6.5 6.8 7.0 7.0 6.9 6.8 6.7 6.5 6.3 6.0 5.8 6.0 6.1 6.4 6.8 6.7 6.3 6.7 6.9 6.7 6.7 6.8 6.7
5.5 5.3 5.2 5.1 5.0 4.9 4.8 4.8 4.8 4.9 5.1 5.1 5.1 5.1 5.2 5.4 5.6 5.7 5.8 6.3 6.8 6.9 7.1 6.9 6.8 6.7 6.6 6.2 6.0 5.9 5.9 6.0 6.1 6.1 6.2 6.6 6.9 6.4 6.9 6.8 6.8 6.9 6.8 6.8
5.1 5.1 5.0 5.0 4.9 4.9 4.9 5.0 5.2 5.2 5.2 5.1 5.2 5.2 5.4 5.5 5.7 5.9 6.3 6.7 6.8 6.9 6.8 6.7 6.6 6.2 6.0 5.9 5.8 5.9 6.0 5.9 5.8 5.8 6.0 6.4 6.5 6.8 6.9 6.9 6.9 7.0 7.0 7.0
5.1 5.1 5.0 5.0 5.0 5.1 5.3 5.3 5.2 5.1 5.1 5.1 5.3 5.5 5.7 5.8 6.1 6.4 6.7 6.8 6.9 6.7 6.4 6.1 6.0 5.9 5.8 5.9 6.1 6.1 5.8 5.6 5.7 5.7 5.9 6.5 6.9 6.8 6.8 6.9 7.0 7.1 7.1 7.1
5.1 5.1 5.0 5.1 5.2 5.2 5.2 5.1 5.0 5.2 5.3 5.3 5.5 5.7 5.9 6.3 6.7 6.9 6.7 6.6 6.4 6.1 5.9 5.9 5.8 5.6 5.8 5.9 5.8 5.8 5.5 5.4 5.3 5.3 5.6 6.0 6.3 6.5 6.6 6.9 7.0 7.0 7.1 7.2
5.1 5.2 5.2 5.1 5.1 5.1 5.1 5.0 5.0 5.1 5.4 5.7 5.9 6.1 6.5 6.8 6.9 6.7 6.5 6.3 5.9 5.8 5.8 5.6 5.6 5.7 5.5 5.4 5.2 4.9 4.6 4.6 4.6 4.8 5.2 5.6 6.0 6.3 6.6 6.7 6.9 7.1 7.2 7.2
5.2 5.2 5.1 5.0 5.0 5.0 5.1 5.2 5.4 5.7 6.0 6.3 6.5 6.7 6.9 6.8 6.6 6.3 6.0 5.8 5.7 5.6 5.6 5.5 5.6 5.3 5.1 5.0 4.7 4.4 4.2 4.2 4.3 4.5 4.9 5.4 5.8 6.2 6.5 6.8 7.0 7.2 7.3 7.4
5.1 5.0 5.0 5.2 5.2 5.3 5.6 5.9 6.1 6.3 6.6 6.8 6.7 6.7 6.6 6.4 6.2 5.9 5.7 5.6 5.6 5.6 5.5 5.5 5.3 5.3 5.2 5.1 4.9 4.6 4.3 4.1 4.2 4.5 4.8 5.2 5.7 6.1 6.5 6.8 7.1 7.4 7.5 7.5
Wind_Speed
14 16 1 10 8 8 12 11 10 10 13 11 10 9 10 4 3 6 7 9 10 9 10 12 12 11 10 10 9 7 6 9 6 7 4 1 2 2 2 2 2 3 6 5
8 9 10 12 13 12 14 13 12 15 13 10 7 6 7 8 7 5 5 9 5 6 6 11 12 12 11 10 11 8 7 6 1 5 2 4 3 3 3 5 5 5 4 5
2 6 7 6 10 16 15 14 11 11 9 8 11 10 8 5 6 4 4 7 7 4 5 6 8 8 10 11 10 8 5 4 11 2 1 2 2 4 4 5 4 4 5 4
0 2 1 8 4 5 5 7 9 9 10 12 13 10 7 7 4 5 7 3 4 5 5 3 4 8 8 9 9 6 5 1 3 3 4 3 2 4 6 4 5 5 3 4
2 4 7 11 1 2 2 3 11 10 10 10 9 8 5 7 8 7 7 8 7 5 3 2 5 10 9 8 6 6 6 4 6 2 4 4 4 5 4 4 5 4 3 4
3 2 4 0 5 2 2 2 8 8 7 8 9 4 4 10 9 4 7 5 5 5 0 3 10 10 8 8 8 9 8 9 10 5 5 6 6 4 4 6 5 3 4 4
3 2 6 2 5 1 2 3 3 5 6 7 6 7 5 4 5 10 8 7 7 9 11 12 12 13 12 11 13 10 6 3 7 7 8 5 4 3 4 5 5 4 2 2
2 2 6 5 5 1 4 4 7 6 7 6 6 7 8 9 10 6 9 12 13 16 16 16 15 14 13 12 10 8 7 6 7 8 7 6 4 5 3 5 5 3 1 2
7 4 4 4 4 3 5 3 4 6 8 9 9 9 10 9 8 8 9 12 15 14 15 14 13 12 12 9 4 1 5 5 6 8 8 8 5 4 4 4 1 3 2 2
2 3 5 4 2 3 8 9 9 9 9 10 9 10 10 8 9 11 15 13 13 13 12 10 9 8 5 4 4 5 5 7 8 7 4 4 4 5 5 2 2 3 3 3
5 6 4 9 13 11 9 11 12 11 12 13 10 9 13 15 15 14 14 13 12 10 8 6 5 4 3 6 3 6 7 6 5 3 5 6 5 5 1 3 3 3 3 3
1 8 3 10 11 10 12 11 12 11 14 15 16 15 16 14 13 11 10 9 8 6 6 5 4 5 4 5 6 5 5 4 3 2 3 5 6 4 7 8 8 9 11 5
4 5 3 12 12 15 14 12 12 13 13 12 12 12 13 11 9 8 7 6 4 1 2 4 4 5 5 5 2 2 4 5 3 4 4 2 2 5 7 6 10 12 12 12
5 2 9 7 10 14 14 12 13 13 12 12 12 11 10 9 6 5 4 2 2 4 5 5 5 6 4 5 6 7 7 9 7 6 3 1 3 4 5 8 8 7 9 15
6 9 15 14 13 12 11 11 13 12 11 10 9 7 6 5 4 2 2 2 3 5 6 6 7 8 8 5 6 6 6 7 6 4 4 4 4 6 6 7 8 8 6 5
12 13 12 13 12 12 12 11 10 8 7 9 9 9 9 8 8 7 6 7 5 6 9 7 8 10 8 10 11 9 9 8 7 5 3 4 5 7 7 7 7 6 6 7
12 9 10 11 11 10 10 11 11 10 9 9 7 7 8 7 5 7 8 6 4 7 9 9 9 11 7 9 11 9 8 9 8 4 4 5 6 8 7 7 7 6 6 6
12 11 10 11 9 9 8 9 7 8 7 7 6 6 6 7 7 7 8 9 9 10 8 7 10 11 9 12 12 10 10 10 9 7 6 5 6 6 7 7 7 6 7 6
13 13 10 10 8 9 9 8 6 7 6 7 7 8 7 7 8 8 9 9 10 8 9 10 11 12 12 12 10 9 10 11 11 10 9 8 5 6 6 7 7 7 7 6
11 12 12 12 10 9 8 6 5 8 8 7 4 6 6 4 3 3 5 6 6 9 12 14 15 13 14 14 13 11 13 13 12 11 13 7 5 8 6 7 8 7 5 4
11 11 10 10 9 8 7 5 6 7 8 4 5 5 5 7 6 6 8 7 11 14 14 15 12 10 11 14 14 12 12 13 12 11 11 5 6 4 4 6 4 4 4 4
9 7 6 7 8 8 7 7 7 4 5 4 4 4 5 8 7 7 5 9 9 14 11 10 10 16 14 18 11 12 14 13 10 10 10 11 7 3 1 2 4 4 4 4
8 7 6 6 6 8 7 6 4 5 3 3 4 6 7 6 6 8 8 11 9 12 10 9 14 18 20 11 11 12 13 11 11 11 12 10 7 5 5 5 5 5 5 6
8 7 7 6 5 4 6 7 5 5 3 4 4 4 6 5 5 6 7 8 10 10 9 10 11 15 15 10 10 11 11 10 11 11 11 13 9 9 8 7 7 7 7 7
7 7 5 3 5 5 6 6 4 6 7 7 7 7 7 5 5 6 7 7 9 9 9 12 12 11 9 10 10 10 10 9 9 9 10 9 9 9 9 9 8 8 8 8
5 5 6 8 6 5 5 5 4 5 5 5 5 5 5 4 4 5 6 7 7 9 7 8 8 7 8 9 9 9 9 9 9 9 10 9 9 9 9 9 8 8 8 8
6 5 4 5 5 5 5 5 5 5 5 4 5 6 6 5 5 5 7 7 7 7 7 7 7 8 7 8 8 8 8 8 10 8 8 9 8 9 9 9 8 8 7 8
Wind_Direction
267 276 250 301 289 247 242 229 230 252 260 285 338 19 351 69 168 203 278 221 210 212 184 179 178 185 185 162 148 155 187 219 228 232 97 102 54 287 308 301 289 287 270 268
292 295 290 271 277 276 276 266 252 261 268 290 350 57 8 359 337 313 300 290 229 213 225 183 187 187 167 161 158 162 203 232 324 285 175 51 22 355 299 264 255 260 283 297
256 349 346 319 243 249 260 260 265 266 279 310 315 333 38 9 333 299 299 330 321 260 244 225 186 171 155 159 149 160 201 186 229 88 117 40 318 294 315 293 283 279 265 268
103 306 277 245 23 352 344 310 297 314 20 17 42 19 353 313 304 341 347 306 298 297 271 231 132 128 126 142 134 165 186 327 264 62 31 327 356 324 276 290 289 276 274 289
146 220 288 309 278 17 41 350 38 40 23 13 27 343 13 58 47 29 9 342 328 332 359 99 128 133 130 121 136 124 103 33 7 346 343 342 319 297 319 304 282 273 261 264
171 221 223 89 98 54 332 189 58 33 15 349 344 340 25 21 9 342 331 324 324 330 321 129 89 99 106 112 113 89 64 40 17 325 355 315 289 329 319 306 287 300 25 28
149 234 293 59 112 94 222 78 56 10 355 354 334 338 355 352 347 341 338 5 10 38 43 52 77 77 70 68 57 43 42 13 358 344 281 288 301 302 293 296 307 299 178 228
148 150 266 131 118 158 59 4 9 351 348 337 324 324 314 315 326 21 343 67 60 66 64 53 45 66 71 62 66 48 18 336 295 294 295 288 286 265 282 305 309 316 114 226
172 205 156 184 46 27 33 357 333 337 344 341 335 330 332 329 343 50 46 74 80 79 72 58 63 70 77 69 51 293 245 262 271 282 289 283 297 331 304 256 273 283 251 208
64 276 185 164 320 71 51 22 355 339 343 355 353 359 332 7 60 63 62 69 79 81 77 78 73 80 102 149 213 259 268 264 259 261 288 322 297 272 257 183 205 252 248 237
213 257 348 72 49 38 23 32 26 9 36 23 7 4 51 68 70 66 69 71 76 83 83 100 146 140 166 222 240 264 271 284 293 323 303 286 281 275 316 301 230 215 226 229
203 74 23 49 56 43 56 49 40 34 56 39 48 58 69 67 72 82 88 91 98 130 162 150 201 233 253 239 245 262 275 290 287 271 262 273 277 299 284 259 266 245 245 227
67 48 36 88 73 77 71 57 56 58 58 64 62 72 81 92 98 111 116 112 102 116 236 250 303 303 289 275 294 301 269 266 263 257 256 272 296 292 298 292 269 261 241 241
47 332 87 84 96 84 85 84 78 76 75 76 80 76 78 83 84 76 68 64 317 333 324 300 289 282 265 261 247 224 233 245 248 251 243 270 282 290 289 290 290 285 244 237
79 73 89 93 91 93 97 99 91 86 85 82 84 93 104 113 108 83 39 360 338 310 301 309 324 313 305 307 266 253 249 249 247 243 228 229 243 248 256 264 271 275 276 263
83 89 95 98 101 103 104 101 101 112 99 67 44 22 12 14 17 8 1 42 5 332 326 321 295 290 293 291 287 285 280 267 249 239 218 232 256 263 266 264 268 266 272 272
113 109 118 118 121 121 101 78 66 57 56 56 46 29 22 9 354 21 0 3 3 323 303 285 277 295 303 298 292 285 284 286 277 257 234 228 247 269 275 269 261 263 270 265
118 125 130 126 123 97 92 81 71 68 62 52 45 44 34 26 7 0 359 345 338 322 306 333 13 352 335 325 319 306 294 290 285 272 260 255 255 268 276 279 266 269 274 269
119 121 112 100 96 86 86 82 69 92 68 46 42 37 31 25 2 356 347 338 323 333 14 357 346 340 333 327 328 330 321 312 291 274 258 239 257 267 272 276 272 267 267 268
115 97 89 79 66 82 80 43 81 73 60 44 31 37 14 357 331 336 319 321 352 27 356 352 346 336 327 332 336 322 314 306 302 306 291 220 241 263 265 269 270 267 261 272
104 105 112 104 97 89 89 79 62 57 56 43 41 28 354 325 9 332 355 351 16 2 356 344 334 335 343 337 324 311 306 300 297 298 293 264 255 250 293 306 326 344 350 355
107 101 100 124 113 100 78 77 79 68 56 33 45 27 351 5 355 0 350 19 355 359 349 337 356 5 347 332 324 340 338 314 295 295 282 275 241 179 331 354 356 9 353 348
113 111 98 84 103 108 98 75 116 89 53 15 65 35 12 352 360 352 356 3 356 356 346 356 6 2 345 345 349 349 342 347 353 358 7 7 16 33 38 23 16 10 2 357
120 108 106 110 126 92 69 47 29 86 64 23 67 71 11 350 357 8 360 353 357 351 350 0 3 1 348 353 355 357 352 5 2 359 357 5 10 13 16 15 12 9 1 345
109 112 108 135 91 68 54 28 14 29 25 11 18 15 356 5 5 358 348 351 349 356 350 355 357 359 360 355 355 357 354 2 6 357 357 4 3 2 9 11 2 357 348 344
133 100 92 74 69 54 41 20 12 17 6 356 3 354 339 4 7 357 347 345 351 351 351 350 352 359 4 355 353 356 356 356 0 360 359 360 354 3 2 354 350 344 336 334
72 51 108 99 63 45 39 17 14 357 349 23 350 316 327 1 357 356 355 348 348 350 351 349 350 356 1 353 355 355 358 357 351 4 360 355 355 354 346 345 336 336 333 327